Rome Ciampino, Italy

2:11 AM CET on March 24, 2017 (GMT +0100)
Ciampino

Weather History for LIRA - October, 2012

Change the Weather History Date:

Sunday, October 21, 2012

  Actual Average Record
Temperature  
Mean Temperature 68 °F -  
Max Temperature 78 °F 64 °F 78 °F (2012)
Min Temperature 57 °F 46 °F 42 °F (2007)
Cooling Degree Days 2    
Growing Degree Days 18 (Base 50)    
Moisture  
Dew Point 59 °F    
Average Humidity 79    
Maximum Humidity 100    
Minimum Humidity 47    
Precipitation  
Precipitation 0.00 in 0.16 in - ()
Sea Level Pressure  
Sea Level Pressure 30.04 in    
Wind  
Wind Speed 2 mph ()    
Max Wind Speed 6 mph    
Max Gust Speed -    
Visibility 6.2 miles    
Events      
Averages and records for this station are not official NWS values.
T = Trace of Precipitation, MM = Missing Value Source: Averaged Metar Reports

Daily Weather History Graph

Daily Weather History Graph

Search for Another Location

Airport or City:

Trip Planner

Search our weather history database for the weather conditions in past years. The results will help you decide how hot, cold, wet, or windy it might be!

Date:

Astronomy

Oct. 21, 2012 Rise Set
Actual Time 7:29 AM CEST 6:18 PM CEST
Civil Twilight 7:00 AM CEST 6:47 PM CEST
Nautical Twilight 6:28 AM CEST 7:19 PM CEST
Astronomical Twilight 5:56 AM CEST 7:51 PM CEST
Moon 1:40 PM CEST (10/21) 11:52 PM CEST (10/21)
Length of Visible Light 11h 46m
Length of Day
10h 49m
Waxing Crescent, 42% of the Moon is Illuminated
Oct 21
Waxing Crescent
Oct 22
First Quarter
Oct 29
Full
Nov 7
Last Quarter
Nov 13
New

Hourly Weather History & Observations

Time (CEST) Temp. Dew Point Humidity Pressure Visibility Wind Dir Wind Speed Gust Speed Precip Events Conditions
12:15 AM 62.6 °F 59.0 °F 88% 30.09 in - East 1.2 mph - N/A   Clear
12:45 AM 62.6 °F 59.0 °F 88% 30.09 in - ENE 2.3 mph - N/A   Clear
1:15 AM 62.6 °F 59.0 °F 88% 30.09 in - NNE 2.3 mph - N/A   Clear
1:45 AM 60.8 °F 59.0 °F 94% 30.06 in - NE 2.3 mph - N/A   Clear
2:15 AM 60.8 °F 57.2 °F 88% 30.06 in - NNE 1.2 mph - N/A   Clear
2:45 AM 60.8 °F 57.2 °F 88% 30.06 in - North 1.2 mph - N/A   Clear
3:15 AM 60.8 °F 59.0 °F 94% 30.06 in - NNE 2.3 mph - N/A   Clear
3:45 AM 59.0 °F 59.0 °F 100% 30.06 in - East 3.5 mph - N/A   Clear
4:15 AM 59.0 °F 57.2 °F 94% 30.04 in - North 2.3 mph - N/A   Clear
4:45 AM 59.0 °F 57.2 °F 94% 30.04 in - North 2.3 mph - N/A   Clear
5:15 AM 57.2 °F 55.4 °F 94% 30.04 in - NNE 2.3 mph - N/A   Clear
5:45 AM 57.2 °F 57.2 °F 100% 30.04 in - NE 2.3 mph - N/A   Clear
6:15 AM 57.2 °F 55.4 °F 94% 30.04 in - NNE 1.2 mph - N/A   Clear
6:45 AM 57.2 °F 55.4 °F 94% 30.04 in - NE 2.3 mph - N/A   Clear
7:15 AM 57.2 °F 55.4 °F 94% 30.04 in - Calm Calm - N/A   Clear
7:45 AM 57.2 °F 55.4 °F 94% 30.04 in - North 2.3 mph - N/A   Clear
8:15 AM 59.0 °F 57.2 °F 94% 30.04 in - NE 1.2 mph - N/A   Clear
8:45 AM 59.0 °F 57.2 °F 94% 30.04 in - NNE 1.2 mph - N/A   Clear
9:15 AM 60.8 °F 59.0 °F 94% 30.06 in - NNE 2.3 mph - N/A   Clear
9:45 AM 62.6 °F 59.0 °F 88% 30.06 in - North 2.3 mph - N/A   Clear
10:15 AM 64.4 °F 59.0 °F 83% 30.06 in - NNE 2.3 mph - N/A   Clear
10:45 AM 66.2 °F 60.8 °F 83% 30.06 in - NE 3.5 mph - N/A   Clear
11:15 AM 69.8 °F 60.8 °F 73% 30.06 in - NNE 2.3 mph - N/A   Clear
11:45 AM 69.8 °F 60.8 °F 73% 30.06 in - NE 2.3 mph - N/A   Clear
12:15 PM 73.4 °F 60.8 °F 65% 30.06 in - North 1.2 mph - N/A   Clear
12:45 PM 73.4 °F 60.8 °F 65% 30.06 in - North 2.3 mph - N/A   Clear
1:15 PM 75.2 °F 59.0 °F 57% 30.04 in - NW 3.5 mph - N/A   Clear
1:45 PM 77.0 °F 60.8 °F 57% 30.04 in - NNW 2.3 mph - N/A   Clear
2:15 PM 78.8 °F 59.0 °F 51% 30.04 in - SW 2.3 mph - N/A   Clear
2:45 PM 78.8 °F 59.0 °F 51% 30.01 in - WSW 1.2 mph - N/A   Clear
3:15 PM 78.8 °F 59.0 °F 51% 30.01 in - WNW 2.3 mph - N/A   Clear
3:45 PM 78.8 °F 59.0 °F 51% 30.01 in - ESE 1.2 mph - N/A   Clear
4:15 PM 78.8 °F 59.0 °F 51% 30.01 in - West 3.5 mph - N/A   Clear
4:45 PM 78.8 °F 57.2 °F 47% 30.01 in - West 2.3 mph - N/A   Clear
5:15 PM 75.2 °F 64.4 °F 69% 30.01 in - SW 5.8 mph - N/A   Clear
5:45 PM 73.4 °F 64.4 °F 73% 30.01 in - SSW 5.8 mph - N/A   Clear
6:15 PM 71.6 °F 64.4 °F 78% 30.01 in 6.2 mi SSW 4.6 mph - N/A   Scattered Clouds
6:45 PM 71.6 °F 64.4 °F 78% 30.04 in 6.2 mi South 3.5 mph - N/A   Scattered Clouds
7:15 PM 69.8 °F 64.4 °F 83% 30.04 in 6.2 mi SSW 3.5 mph - N/A   Scattered Clouds
7:45 PM 69.8 °F 64.4 °F 83% 30.04 in 6.2 mi South 3.5 mph - N/A   Scattered Clouds
8:15 PM 69.8 °F 64.4 °F 83% 30.04 in - SSE 3.5 mph - N/A   Clear
8:45 PM 69.8 °F 62.6 °F 78% 30.04 in 6.2 mi SE 1.2 mph - N/A   Scattered Clouds
9:15 PM 68.0 °F 60.8 °F 78% 30.04 in 6.2 mi East 4.6 mph - N/A   Scattered Clouds
9:45 PM 66.2 °F 59.0 °F 78% 30.04 in 6.2 mi East 2.3 mph - N/A   Scattered Clouds
10:15 PM 66.2 °F 59.0 °F 78% 30.04 in 6.2 mi ESE 1.2 mph - N/A   Scattered Clouds
10:45 PM 66.2 °F 60.8 °F 83% 30.04 in 6.2 mi Calm Calm - N/A   Scattered Clouds
11:15 PM 66.2 °F 59.0 °F 78% 30.04 in 6.2 mi East 3.5 mph - N/A   Scattered Clouds
11:45 PM 66.2 °F 59.0 °F 78% 30.04 in 6.2 mi Calm Calm - N/A   Scattered Clouds